GalileoSat-19

operational
NORAD ID: 43055 Int'l Des: 2017-079 Owner: GSAEU Country: I-EU Constellation: Galileo
MEOCIRCULAR

Über GalileoSat-19

Beschreibung wird geladen...

Live-Position

3D-Globus wird geladen...

Nächste Überflüge

Höhenverlauf

Altitude vs Time

uPlot chart will show altitude changes over time

Zweizeiliger Elementsatz

1 43055U 17079A 25345.89611181 .00000013 00000-0 00000-0 0 9999
2 43055 55.1303 226.6610 0001266 350.6161 9.4600 1.70473900 49795
Epoch: 11. Dez. 2025 • Age: 48 hours

Aktueller Status

Höhe 23226.7 km
Geschwindigkeit 3.67 km/s
Subsatellitenpunkt 27.00°N, 18.95°W
Startdatum 12. Dez. 2017
Alter 8 years
Typ navigation

Technische Details

Klassifizierung Payload
Masse 715.00 kg
Trockenmasse 700.00 kg
Gesamtmasse 715.00 kg
Länge 2.70 m
Durchmesser 1.60 m
Spannweite 14.70 m
Form Box+2 pan
Hersteller OHB
Bus-Typ GalileoSat
Phasenstatus In Orbit
Besitzer/Staat GSAEU/I-EU

Große Konstellationen

Loading constellations...